Date String (YYYY-MM-DD hh:mm:ss) UTC,Instrument flags,Ambient pressure (hPa),Sample flow (lpm),Bypass flow (lpm),Sample temperature (°C),Ambient temperature (°C),ASC tube jacket temperature (°C),LED temperature (°C),Box temperature (°C),Sample RH (%),Span deviation,Mass concentration (μg/m³),Mass concentration (μg/m³),Mass concentration (μg/m³)
DateTimeUTC,F1_M11,P_M11,Q1_M11,Q2_M11,T1_M11,T2_M11,T3_M11,T4_M11,T5_M11,U1_M11,ZSPAN_M11,X0_M11,X2_M11,X1_M11
2022-04-10 09:00:00,,0814.8,5.00,0.00,26.6,25.8,00.0,35.7,28.4,18.3,0000.0,0007.54,0003.40,0001.69
2022-04-10 09:01:00,,0814.8,5.00,0.00,26.6,25.7,00.0,35.7,28.4,18.2,0000.0,0007.87,0003.37,0001.74
2022-04-10 09:02:00,,0814.8,5.00,0.00,26.6,25.7,00.0,35.7,28.3,18.2,0000.0,0007.91,0003.40,0001.78
2022-04-10 09:03:00,,0814.8,4.99,0.00,26.6,25.7,00.0,35.7,28.3,18.1,0000.0,0007.89,0003.41,0001.81
2022-04-10 09:04:00,,0814.9,5.01,0.00,26.6,25.7,00.0,35.7,28.3,18.1,0000.0,0007.85,0003.42,0001.86
2022-04-10 09:05:00,,0814.8,5.01,0.00,26.6,25.7,00.0,35.6,28.3,18.1,0000.0,0007.89,0003.44,0001.89
2022-04-10 09:06:00,,0814.9,5.01,0.00,26.5,25.7,00.0,35.6,28.3,18.1,0000.0,0007.88,0003.47,0001.92
2022-04-10 09:07:00,,0815.0,4.99,0.00,26.5,25.7,00.0,35.6,28.3,18.1,0000.0,0008.11,0003.57,0002.00
2022-04-10 09:08:00,,0815.1,4.99,0.00,26.5,25.7,00.0,35.6,28.3,18.1,0000.0,0008.55,0003.68,0002.05
2022-04-10 09:09:00,,0815.0,4.99,0.00,26.5,25.7,00.0,35.6,28.3,18.1,0000.0,0008.97,0003.69,0002.10
2022-04-10 09:10:00,,0815.0,5.00,0.00,26.5,25.7,00.0,35.6,28.3,18.0,0000.0,0009.03,0003.72,0002.14
2022-04-10 09:11:00,,0815.1,5.01,0.00,26.5,25.7,00.0,35.6,28.3,18.0,0000.0,0008.80,0003.69,0002.16
2022-04-10 09:12:00,,0815.2,5.00,0.00,26.5,25.7,00.0,35.6,28.3,18.0,0000.0,0008.70,0003.75,0002.18
2022-04-10 09:13:00,,0815.2,4.99,0.00,26.5,25.7,00.0,35.6,28.3,18.1,0000.0,0009.27,0003.82,0002.21
2022-04-10 09:14:00,,0815.2,5.00,0.00,26.5,25.7,00.0,35.6,28.3,18.1,0000.0,0009.45,0003.90,0002.25
2022-04-10 09:15:00,,0815.3,5.02,0.00,26.5,25.7,00.0,35.5,28.2,18.0,0000.0,0009.67,0003.95,0002.27
2022-04-10 09:16:00,,0815.2,4.99,0.00,26.5,25.7,00.0,35.5,28.2,18.0,0000.0,0009.87,0003.98,0002.29
2022-04-10 09:17:00,,0815.3,5.00,0.00,26.5,25.7,00.0,35.5,28.2,18.0,0000.0,0009.92,0003.96,0002.31
2022-04-10 09:18:00,,0815.2,5.00,0.00,26.5,25.7,00.0,35.5,28.2,18.0,0000.0,0009.82,0003.94,0002.32
2022-04-10 09:19:00,,0815.2,5.01,0.00,26.5,25.7,00.0,35.5,28.3,18.0,0000.0,0009.61,0003.91,0002.33
2022-04-10 09:20:00,,0815.3,5.01,0.00,26.5,25.7,00.0,35.5,28.3,18.0,0000.0,0009.27,0003.92,0002.32
2022-04-10 09:21:00,,0815.3,5.00,0.00,26.5,25.7,00.0,35.5,28.3,18.1,0000.0,0009.11,0003.90,0002.32
2022-04-10 09:22:00,,0815.3,4.99,0.00,26.5,25.7,00.0,35.5,28.3,18.1,0000.0,0009.24,0003.89,0002.33
2022-04-10 09:23:00,,0815.3,5.00,0.00,26.5,25.7,00.0,35.5,28.3,18.0,0000.0,0009.07,0003.84,0002.33
2022-04-10 09:24:00,,0815.4,5.00,0.00,26.5,25.7,00.0,35.5,28.3,18.0,0000.0,0008.49,0003.78,0002.34
2022-04-10 09:25:00,,0815.3,5.01,0.00,26.5,25.7,00.0,35.5,28.3,18.0,0000.0,0008.46,0003.78,0002.34
2022-04-10 09:26:00,,0815.3,4.99,0.00,26.5,25.7,00.0,35.5,28.3,18.0,0000.0,0008.45,0003.79,0002.35
2022-04-10 09:27:00,,0815.3,4.99,0.00,26.5,25.7,00.0,35.5,28.3,18.0,0000.0,0008.31,0003.77,0002.35
2022-04-10 09:28:00,,0815.5,5.01,0.00,26.5,25.6,00.0,35.5,28.3,18.0,0000.0,0008.25,0003.80,0002.35
2022-04-10 09:29:00,,0815.9,4.99,0.00,26.5,25.7,00.0,35.5,28.3,18.0,0000.0,0008.18,0003.78,0002.34
2022-04-10 09:30:00,,0816.0,5.00,0.00,26.5,25.7,00.0,35.5,28.3,18.0,0000.0,0008.32,0003.80,0002.34
2022-04-10 09:31:00,,0815.9,5.01,0.00,26.5,25.7,00.0,35.5,28.4,18.0,0000.0,0008.33,0003.82,0002.35
2022-04-10 09:32:00,,0816.0,4.99,0.00,26.5,25.7,00.0,35.5,28.4,17.8,0000.0,0008.47,0003.87,0002.36
2022-04-10 09:33:00,,0816.0,4.99,0.00,26.5,25.7,00.0,35.5,28.4,17.8,0000.0,0008.49,0003.94,0002.40
2022-04-10 09:34:00,,0816.0,5.00,0.00,26.5,25.7,00.0,35.5,28.4,17.7,0000.0,0008.85,0004.00,0002.40
2022-04-10 09:35:00,,0816.0,5.01,0.00,26.5,25.7,00.0,35.5,28.4,17.7,0000.0,0008.90,0004.04,0002.40
2022-04-10 09:36:00,,0815.9,5.00,0.00,26.6,25.7,00.0,35.5,28.4,17.7,0000.0,0008.96,0004.05,0002.39
2022-04-10 09:37:00,,0816.0,4.99,0.00,26.6,25.7,00.0,35.5,28.4,17.7,0000.0,0008.91,0004.03,0002.37
2022-04-10 09:38:00,,0816.0,5.00,0.00,26.6,25.7,00.0,35.5,28.4,17.8,0000.0,0009.01,0004.08,0002.39
2022-04-10 09:39:00,,0815.9,4.99,0.00,26.5,25.7,00.0,35.5,28.4,17.9,0000.0,0008.99,0004.07,0002.39
2022-04-10 09:40:00,,0815.9,5.01,0.00,26.5,25.6,00.0,35.5,28.3,18.0,0000.0,0009.07,0004.07,0002.38
2022-04-10 09:41:00,,0815.4,5.00,0.00,26.5,25.6,00.0,35.5,28.3,18.0,0000.0,0008.95,0004.05,0002.38
2022-04-10 09:42:00,,0815.4,5.00,0.00,26.5,25.5,00.0,35.5,28.2,18.1,0000.0,0008.90,0004.02,0002.38
2022-04-10 09:43:00,,0815.4,4.99,0.00,26.4,25.3,00.0,35.5,28.2,18.3,0000.0,0008.86,0004.01,0002.38
2022-04-10 09:44:00,,0815.4,4.99,0.00,26.4,25.3,00.0,35.4,28.1,18.4,0000.0,0008.85,0004.01,0002.36
2022-04-10 09:45:00,,0815.4,4.99,0.00,26.4,25.3,00.0,35.4,28.1,18.4,0000.0,0008.64,0004.01,0002.35
2022-04-10 09:46:00,,0815.3,5.02,0.00,26.4,25.3,00.0,35.4,28.1,18.4,0000.0,0008.53,0003.98,0002.33
2022-04-10 09:47:00,,0815.3,5.00,0.00,26.3,25.4,00.0,35.4,28.1,18.4,0000.0,0008.45,0003.95,0002.33
2022-04-10 09:48:00,,0815.3,5.00,0.00,26.4,25.4,00.0,35.4,28.2,18.3,0000.0,0008.43,0003.94,0002.33
2022-04-10 09:49:00,,0815.4,5.00,0.00,26.4,25.5,00.0,35.4,28.2,18.3,0000.0,0008.39,0003.91,0002.31
2022-04-10 09:50:00,,0815.9,4.99,0.00,26.4,25.5,00.0,35.4,28.2,18.3,0000.0,0008.40,0003.91,0002.31
2022-04-10 09:51:00,,0816.0,4.99,0.00,26.4,25.5,00.0,35.4,28.2,18.3,0000.0,0008.29,0003.90,0002.32
2022-04-10 09:52:00,,0816.1,5.00,0.00,26.4,25.6,00.0,35.4,28.3,18.2,0000.0,0008.22,0003.90,0002.29
2022-04-10 09:53:00,,0815.9,5.01,0.00,26.4,25.6,00.0,35.4,28.3,18.2,0000.0,0008.25,0003.91,0002.28
2022-04-10 09:54:00,,0815.9,5.00,0.00,26.4,25.6,00.0,35.4,28.3,18.3,0000.0,0008.13,0003.87,0002.29
2022-04-10 09:55:00,,0815.7,5.00,0.00,26.4,25.6,00.0,35.4,28.2,18.2,0000.0,0008.08,0003.84,0002.29
2022-04-10 09:56:00,,0815.4,4.99,0.00,26.4,25.5,00.0,35.4,28.2,18.2,0000.0,0008.00,0003.83,0002.31
2022-04-10 09:57:00,,0815.2,5.01,0.00,26.4,25.5,00.0,35.4,28.1,18.2,0000.0,0007.98,0003.81,0002.31
2022-04-10 09:58:00,,0815.3,4.99,0.00,26.3,25.4,00.0,35.4,28.1,18.3,0000.0,0008.06,0003.84,0002.32
2022-04-10 09:59:00,,0815.1,5.00,0.00,26.3,25.2,00.0,35.3,28.0,18.5,0000.0,0008.06,0003.85,0002.34
